Regional Weather Roundup
Issued by NWS

Home | Current Version | Previous Version | Text Only | Print | Product List | Glossary Off
Versions: 1 2 3 4 5 6 7 8 9 10 11 12 13 14 15 16 17 18 19 20 21 22 23 24 25 26 27 28 29 30 31 32 33 34 35 36 37 38 39 40 41 42 43 44 45 46 47 48 49 50

000
ASUS43 KIND 210459
RWRIN

WEATHER ROUNDUP FOR INDIANA
NATIONAL WEATHER SERVICE INDIANAPOLIS IN
1200 AM EST TUE NOV 21 2017

NOTE: "FAIR" INDICATES FEW OR NO CLOUDS BELOW 12,000 FEET WITH NO
SIGNIFICANT WEATHER AND/OR OBSTRUCTIONS TO VISIBILITY.

* - STATION DOES NOT REPORT WEATHER SUCH AS PRECIPITATION OR FOG.

+ - STATION NOT QUALITY CONTROLLED BY THE NATIONAL WEATHER SERVICE.
    USE DATA WITH CAUTION...ESPECIALLY DEWPOINT AND RELATIVE
    HUMIDITY OBSERVATIONS.

INZ001>003-010>013-019-020-210600-
NORTHWEST INDIANA

CITY           SKY/WX    TMP DP  RH WIND       PRES   REMARKS
KNOX *+        CLOUDY    41  28  60 S17G25    29.80F
LA PORTE +     CLOUDY    40  28  62 SW14G20   29.79F WCI  33
MICHIGAN CITY+ CLEAR     41  28  60 S18G29    29.77F
MONTICELLO +   CLOUDY    41  25  54 S15G24    29.85F
RENSSELAER +   CLEAR     41  23  48 S17G23    29.83F

$$

LMZ046-743>745-210600-
SOUTHERN LAKE MICHIGAN

STATION/POSITION TIME  TEMP    WIND        PRES    WAVE
                       AIR SEA DIR/SP/G            HT
                 (UTC) (F)     (DEG/KT/KT) (MB)    (FT)
BURNS HARBOR     0440   45     200/ 23/ 30 1007.8F
MICHIGAN CITY    0430   44     170/ 24/ 29   N/A

$$

INZ004-005-014>016-021>024-210600-
NORTH CENTRAL INDIANA

CITY           SKY/WX    TMP DP  RH WIND       PRES   REMARKS
GOSHEN         CLEAR     40  23  50 SW16      29.82F WCI  31
PERU/GRISSOM   CLEAR     39  26  60 SW16      29.86F WCI  30
SOUTH BEND     PTCLDY    41  27  57 SW23G31   29.79F
WARSAW +       CLOUDY    41  25  52 SW9G20    29.84S

$$

INZ006>009-017-018-025>027-210600-
NORTHEAST INDIANA

CITY           SKY/WX    TMP DP  RH WIND       PRES   REMARKS
AUBURN +       CLEAR     39  25  56 S10G18    29.85F WCI  32
FORT WAYNE     PTCLDY    40  27  59 S16       29.86F WCI  31
KENDALLVILLE + CLEAR     39  26  58 SW15G21   29.84F WCI  31

$$

INZ028-029-035-036-043>045-051>053-210600-
WEST CENTRAL INDIANA

CITY           SKY/WX    TMP DP  RH WIND       PRES   REMARKS
CRAWFORDSVL +  CLEAR     37  26  64 S15       29.86  WCI  28
GREENCASTLE +  CLEAR     43  23  45 SW7G16    29.93S
LAFAYETTE      CLEAR     40  27  59 SW6       29.88S WCI  36
TERRE HAUTE    CLEAR     41  24  51 S12       29.94R

$$

INZ030>032-037>040-046>048-054>057-064-065-210600-
CENTRAL INDIANA

CITY           SKY/WX    TMP DP  RH WIND       PRES   REMARKS
FRANKFORT +    CLEAR     39  28  66 SW8       29.90F WCI  33
INDIANAPOLIS   CLEAR     41  23  48 SW16      29.93R
-EAGLE CREEK   CLEAR     42  22  44 SW7       29.92R
KOKOMO +       CLEAR     39  26  59 S14G21    29.89S WCI  31
MT COMFORT *+  CLEAR     36  28  75 S9        29.92S WCI  29
SHELBYVILLE    CLEAR     38  25  59 S13       29.93F WCI  30

$$

INZ033-034-041-042-049-050-058-059-210600-
EAST CENTRAL INDIANA

CITY           SKY/WX    TMP DP  RH WIND       PRES   REMARKS
MUNCIE         CLEAR     42  24  49 SW15G24   29.89S
RICHMOND +     CLEAR     34  28  80 S16       29.94F WCI  23

$$

INZ060-061-067>069-081>083-085>088-210600-
SOUTHWEST INDIANA

CITY           SKY/WX    TMP DP  RH WIND       PRES   REMARKS
EVANSVILLE     CLEAR     40  25  55 S7        29.99F WCI  35
HUNTINGBURG +  CLEAR     40  26  57 S9        29.99F WCI  34

$$

INZ062-063-066-070>080-084-089>092-210600-
SOUTH CENTRAL AND SOUTHEAST INDIANA

CITY           SKY/WX    TMP DP  RH WIND       PRES   REMARKS
BLOOMINGTON    CLEAR     43  23  45 S12G22    29.94S
MADISON *+     CLEAR     37  23  56 S5        30.01F WCI  34
SEYMOUR +      CLEAR     41  25  52 S10       29.97F

$$





USA.gov is the U.S. government's official web portal to all federal, state and local government web resources and services.